Regional Weather Roundup
Issued by NWS

Home | Current Version | Previous Version | Graphics & Text | Print | Product List | Glossary On
Versions: 1 2 3 4 5 6 7 8 9 10 11 12 13 14 15 16 17 18 19 20 21 22 23 24 25 26 27 28 29 30 31 32 33 34 35 36 37 38 39 40 41 42 43 44 45 46 47 48 49 50
000
ASUS45 KTFX 290719
RWRMT
MONTANA HOURLY WEATHER ROUNDUP
NATIONAL WEATHER SERVICE GREAT FALLS MT
119 AM MDT SUN MAR 29 2015

NOTE: "FAIR" INDICATES FEW OR NO CLOUDS BELOW 12000 FEET WITH NO
SIGNIFICANT WEATHER AND/OR OBSTRUCTIONS TO VISIBILITY.

* THESE STATIONS ARE NOT UNDER NWS QUALITY CONTROL. THEY DO NOT
   REPORT WEATHER SUCH AS PRECIPITATION OR FOG.

MTZ001>007-043-290800-
WEST OF THE DIVIDE
CITY           SKY/WX    TMP DP  RH WIND       PRES   REMARKS
KALISPELL      MOCLDY    41  34  76 S5        30.25S
MISSOULA       PTCLDY    39  30  70 N5        30.31F WCI  35
BUTTE          MOCLDY    36  21  54 W9        30.31R WCI  29
MULLAN PASS    PTCLDY    30  30 100 VRB3      30.28S
* ESSEX        N/A       38  37  96 S2         N/A
* EUREKA APT   PTCLDY    43  34  71 SE8       30.24R
* HAMILTON APT PTCLDY    37  28  70 S8        30.32F WCI  31
* LIBBY APT    PTCLDY    43  34  71 CALM      30.27R
* LINCOLN      N/A       40  28  62 SW5G15     N/A   WCI  36
* LOOKOUT PASS N/A       37  33  85 VRB1       N/A
* POLSON       N/A       40  33  76 S1G9       N/A
* SEELEY LAKE  N/A       35  32  89 E2         N/A
* THOMP F APT  MOCLDY    35  13  40 N4G16      N/A
* YAAK HILL    N/A       44  35  71 NE1        N/A
$$

MTZ008-052>055-290800-
SOUTHWEST MONTANA
CITY           SKY/WX    TMP DP  RH WIND       PRES   REMARKS
BOZEMAN        CLEAR     28  19  69 SE8       30.28R WCI  20
DILLON         CLEAR     34  19  54 S12       30.29S WCI  25
* W YELLOWSTON CLEAR     26  17  69 N/A        N/A
* BOULDER HILL N/A       39  18  43 S6         N/A   WCI  35
* HOMESTAKE PS N/A       30  20  66 NW2G7      N/A
* MONIDA PASS  N/A       30  15  54 NW8G15     N/A   WCI  22
* RAYNOLDS PAS N/A       29  -7  20 NE6        N/A   WCI  23
* WHITEHALL    N/A       42  22  45 W9G15      N/A
* WISE RIVER   N/A       36  20  52 W13G24     N/A   WCI  27
$$

MTZ009>010-012-014-046-048-049-054-290800-
EAST SLOPES AND CENTRAL MONTANA
CITY           SKY/WX    TMP DP  RH WIND       PRES   REMARKS
CUT BANK       PTCLDY    39  30  70 W22       30.10R WCI  29
GREAT FALLS    PTCLDY    39  27  62 SW13      30.15S WCI  31
HELENA         MOCLDY    45  27  49 W16G25    30.25R
MALMSTROM AFB  PTCLDY    41  28  60 SW14      30.15S
* CONRAD       CLEAR     45  30  56 SW13G22    N/A
* DEARBORN     N/A       47  28  48 S10G22     N/A
* EAST GLACIER N/A       41  26  55 W11G26     N/A
* MONARCH      N/A       36  24  62 SW10G16    N/A   WCI  29
* PENDROY      N/A       40  27  60 W11        N/A   WCI  33
* ROGERS PASS  N/A       36  27  70 SE14G22    N/A   WCI  27
* SAINT MARY   N/A       41  30  65 SW11G24    N/A
* WHITE SULPH  N/A       38  23  55 W5G17      N/A   WCI  34
$$

MTZ011-013-016-021-035-040-045-047-050-051-290800-
NORTH CENTRAL MONTANA
CITY           SKY/WX    TMP DP  RH WIND       PRES   REMARKS
HAVRE          CLOUDY    43  37  79 W13       30.10R
LEWISTOWN      CLOUDY    43  36  76 W8        30.15R
* N BAR RANCH  CLEAR     39  30  70 NW17G29   30.10R WCI  30
* CHINOOK      PTCLDY    43  39  86 W7        30.09R
* FORT BENTON  PTCLDY    43  30  60 SW9       30.14R
* CHESTER      N/A       40  34  79 N5         N/A   WCI  36
* DENTON       N/A       41  35  79 SW10       N/A
* GEYSER       N/A       40  28  62 N6         N/A   WCI  36
* JUDITH GAP   N/A       35  34  96 NW9        N/A   WCI  28
* LOMA         N/A       45  32  60 SW12       N/A
$$

MTZ017>020-022>027-061-062-290800-
NORTHEAST MONTANA
CITY           SKY/WX    TMP DP  RH WIND       PRES   REMARKS
GLASGOW        PTCLDY    41  36  82 NW21      30.01R
GLENDIVE       CLOUDY    43  37  79 NW28G41   29.90R
JORDAN         PTCLDY    45  39  80 NW29G37   30.02R
SIDNEY         CLOUDY    43  37  79 NW23G30   29.86R
WOLF POINT     MOCLDY    43  36  76 NW21G28   29.96R
* BEAVER HILL  N/A       40  38  93 NW42G56    N/A   WCI  27
* CIRCLE       N/A       44  40  86 NW11G19    N/A
* LINDSAY DVD  N/A       40  39  96 NW29G36    N/A   WCI  29
* NAVAJO       N/A       37  34  89 NW24G32    N/A   WCI  26
* POPLAR APT   MOCLDY    43  37  79 NW23G30   29.92R
* SACO         N/A       42  38  86 NW18G25    N/A
$$

MTZ028>042-056>058-290800-
SOUTHCENTRAL AND SOUTHEAST MONTANA
CITY           SKY/WX    TMP DP  RH WIND       PRES   REMARKS
BAKER          RAIN      41  39  93 NW35G54   29.87R
BILLINGS       PTCLDY    46  27  48 W16       30.16R
LIVINGSTON     MOCLDY    45  21  38 W21       30.23R
MILES CITY     CLOUDY    45 N/A N/A NW29G41   29.99R
* BIG TIMBER A PTCLDY    45  21  38 SW24G36   30.19R
* FORSYTH APT  CLOUDY    45  39  80 W22G28    30.06R
* ALZADA       N/A       46  28  50 W20G26     N/A
* HYSHAM       N/A       42  35  76 W16G25     N/A
* LAME DEER    N/A       39  36  89 NW15G34    N/A   WCI  31
* REED POINT   N/A       48  21  34 W17G22     N/A
* ROSCOE HILL  N/A       43   8  24 SW6G14     N/A
$$

REGIONAL REPORTS...DAKOTAS
CITY           SKY/WX    TMP DP  RH WIND       PRES   REMARKS
WILLISTON      CLOUDY    41  37  86 NW22G39   29.79R
DICKINSON      RAIN      43  37  79 W30G40    29.67R
BEACH          N/A       41  41 100 NW28G41   29.82R VSB 3
CROSBY         MOCLDY    37  37 100 N26G36    29.77R WCI  25
TIOGA          CLOUDY    37  37 100 NW26G40   29.75R WCI  25
WATFORD CITY   LGT RAIN  39  37  93 NW25G36   29.73R WCI  28
BISMARCK       CLOUDY    48  41  77 W17       29.61F
GRAND FORKS    CLOUDY    43  36  76 S22G31    29.44F
FARGO          LGT RAIN  43  32  65 S17       29.57F
BUFFALO SD     PTCLDY    45  36  71 W51G63    29.74S
RAPID CITY     CLEAR     54  16  22 NW33G49   29.85R
$$

REGIONAL REPORTS...WYOMING/IDAHO/WASHINGTON
CITY           SKY/WX    TMP DP  RH WIND       PRES   REMARKS
GILLETTE       CLEAR     46  23  40 NW43G55   30.02R
SHERIDAN       CLOUDY    46  28  50 N25G39    30.17R
CODY           FAIR      45  12  26 CALM      30.19R
YELLOWSTONE LA CLEAR     25  14  63 CALM      30.31S
SALMON         CLEAR     36  25  64 S6        30.34R WCI  31
MULLAN PASS    PTCLDY    30  30 100 VRB3      30.28S
SAND POINT     PTCLDY    41  36  82 SW3       30.29R
SPOKANE        MOCLDY    45  36  71 S13       30.28S
$$

REGIONAL REPORTS...ALBERTA
CITY           SKY/WX    TMP DP  RH WIND       PRES   REMARKS
CALGARY        FAIR      37  30  76 S7        30.01F WCI  32
LETHBRIDGE     CLEAR     43  32  65 W23G29    30.07F
MEDICINE HAT   CLOUDY    41  37  86 SW7       30.06S
EDMONTON       PTCLDY    30  27  89 S8        29.95S WCI  22
WATERTON GATE  N/A       45  25  45 SW22G35    N/A
CARDSTON       N/A       41  28  60 W10        N/A
MILK RIVER     N/A       34  30  85 W7         N/A   WCI  28
$$

REGIONAL REPORTS...SASKATCHEWAN
CITY           SKY/WX    TMP DP  RH WIND       PRES   REMARKS
SWIFT CURRENT  MOCLDY    36  34  92 W10       29.97R WCI  29
REGINA         N/A       34  34 100 NW16      29.85R WCI  24
VAL MARIE      N/A       39  37  93 NW10       N/A   WCI  32
ASSINIBOIA     N/A       36  34  92 NW14       N/A   WCI  27
CORONACH       N/A       36  34  92 NW18G24    N/A   WCI  26

$$




USA.gov is the U.S. government's official web portal to all federal, state and local government web resources and services.